Time,TemperatureF,DewpointF,PressureIn,WindDirection,WindDirectionDegrees,WindSpeedMPH,WindSpeedGustMPH,Humidity,HourlyPrecipIn,Conditions,Clouds,dailyrainin,SoftwareType,DateUTC
2013-11-21 00:01:00,22.4,13.8,30.61,NNE,21,0.0,0.0,69,0.00,,,0.00,WeatherCatV1.15B25,2013-11-21 05:01:00,
2013-11-21 00:02:00,22.4,13.8,30.61,NNE,21,0.0,0.0,69,0.00,,,0.00,WeatherCatV1.15B25,2013-11-21 05:02:00,
2013-11-21 00:05:00,22.3,14.0,30.61,NNE,21,0.0,0.0,70,0.00,,,0.00,WeatherCatV1.15B25,2013-11-21 05:05:00,
2013-11-21 00:06:00,22.3,14.0,30.61,NNE,21,0.0,0.0,70,0.00,,,0.00,WeatherCatV1.15B25,2013-11-21 05:06:00,
2013-11-21 00:11:00,22.2,12.9,30.61,NNE,21,0.0,0.0,67,0.00,,,0.00,WeatherCatV1.15B25,2013-11-21 05:11:00,
2013-11-21 00:12:00,22.3,12.3,30.61,NNE,21,0.0,0.0,65,0.00,,,0.00,WeatherCatV1.15B25,2013-11-21 05:12:00,
2013-11-21 00:17:00,22.4,13.8,30.61,NNE,21,0.0,0.0,69,0.00,,,0.00,WeatherCatV1.15B25,2013-11-21 05:17:00,
2013-11-21 00:22:00,22.4,13.8,30.61,NNE,21,0.0,0.0,69,0.00,,,0.00,WeatherCatV1.15B25,2013-11-21 05:22:00,
2013-11-21 00:27:00,22.4,13.1,30.61,NNE,21,0.0,0.0,67,0.00,,,0.00,WeatherCatV1.15B25,2013-11-21 05:27:00,
2013-11-21 00:32:00,22.3,13.7,30.60,NNE,21,0.0,0.0,69,0.00,,,0.00,WeatherCatV1.15B25,2013-11-21 05:32:00,
2013-11-21 00:37:00,22.2,12.9,30.60,NNE,21,0.0,0.0,67,0.00,,,0.00,WeatherCatV1.15B25,2013-11-21 05:37:00,
2013-11-21 00:42:00,22.3,12.3,30.60,NNE,21,0.0,0.0,65,0.00,,,0.00,WeatherCatV1.15B25,2013-11-21 05:42:00,
2013-11-21 00:47:00,22.5,12.9,30.61,NNE,21,0.0,0.0,66,0.00,,,0.00,WeatherCatV1.15B25,2013-11-21 05:47:00,
2013-11-21 00:52:00,22.5,12.9,30.61,NNE,21,0.0,0.0,66,0.00,,,0.00,WeatherCatV1.15B25,2013-11-21 05:52:00,
2013-11-21 00:57:00,22.5,12.5,30.61,NNE,21,0.0,0.0,65,0.00,,,0.00,WeatherCatV1.15B25,2013-11-21 05:57:00,
2013-11-21 01:02:00,22.6,13.3,30.61,NNE,21,0.0,0.0,67,0.00,,,0.00,WeatherCatV1.15B25,2013-11-21 06:02:00,
2013-11-21 01:04:00,22.5,13.6,30.61,NNE,21,0.0,0.0,68,0.00,,,0.00,WeatherCatV1.15B25,2013-11-21 06:04:00,
2013-11-21 01:09:00,22.2,13.6,30.62,NNE,21,0.0,0.0,69,0.00,,,0.00,WeatherCatV1.15B25,2013-11-21 06:09:00,
2013-11-21 01:14:00,21.9,13.3,30.62,NNE,21,0.0,0.0,69,0.00,,,0.00,WeatherCatV1.15B25,2013-11-21 06:14:00,
2013-11-21 01:19:00,21.8,13.2,30.61,NNE,21,0.0,0.0,69,0.00,,,0.00,WeatherCatV1.15B25,2013-11-21 06:19:00,
2013-11-21 01:24:00,22.0,13.7,30.62,NNE,21,0.0,0.0,70,0.00,,,0.00,WeatherCatV1.15B25,2013-11-21 06:24:00,
2013-11-21 01:29:00,22.0,13.7,30.62,NNE,21,0.0,0.0,70,0.00,,,0.00,WeatherCatV1.15B25,2013-11-21 06:29:00,
2013-11-21 01:34:00,21.8,13.5,30.62,NNE,21,0.0,0.0,70,0.00,,,0.00,WeatherCatV1.15B25,2013-11-21 06:34:00,
2013-11-21 01:39:00,21.7,12.8,30.62,NNE,21,0.0,0.0,68,0.00,,,0.00,WeatherCatV1.15B25,2013-11-21 06:39:00,
2013-11-21 01:44:00,21.7,13.8,30.62,NNE,21,0.0,0.0,71,0.00,,,0.00,WeatherCatV1.15B25,2013-11-21 06:44:00,
2013-11-21 01:49:00,21.6,14.0,30.62,NNE,21,0.0,0.0,72,0.00,,,0.00,WeatherCatV1.15B25,2013-11-21 06:49:00,
2013-11-21 01:54:00,21.5,13.3,30.62,NNE,21,0.0,0.0,70,0.00,,,0.00,WeatherCatV1.15B25,2013-11-21 06:54:00,
2013-11-21 01:59:00,21.5,13.6,30.62,NNE,21,0.0,0.0,71,0.00,,,0.00,WeatherCatV1.15B25,2013-11-21 06:59:00,
2013-11-21 02:04:00,21.5,13.9,30.62,NNE,21,0.0,0.0,72,0.00,,,0.00,WeatherCatV1.15B25,2013-11-21 07:04:00,
2013-11-21 02:09:00,21.5,14.2,30.62,NNE,21,0.0,0.0,73,0.00,,,0.00,WeatherCatV1.15B25,2013-11-21 07:09:00,
2013-11-21 02:14:00,21.5,13.9,30.62,NNE,21,0.0,0.0,72,0.00,,,0.00,WeatherCatV1.15B25,2013-11-21 07:14:00,
2013-11-21 02:19:00,21.6,13.4,30.62,NNE,21,0.0,0.0,70,0.00,,,0.00,WeatherCatV1.15B25,2013-11-21 07:19:00,
2013-11-21 02:24:00,21.5,13.9,30.61,NNE,21,0.0,0.0,72,0.00,,,0.00,WeatherCatV1.15B25,2013-11-21 07:24:00,
2013-11-21 02:29:00,21.5,13.6,30.61,NNE,21,0.0,0.0,71,0.00,,,0.00,WeatherCatV1.15B25,2013-11-21 07:29:00,
2013-11-21 02:34:00,21.6,13.0,30.61,NNE,21,0.0,0.0,69,0.00,,,0.00,WeatherCatV1.15B25,2013-11-21 07:34:00,
2013-11-21 02:39:00,21.6,13.7,30.61,NNE,21,0.0,0.0,71,0.00,,,0.00,WeatherCatV1.15B25,2013-11-21 07:39:00,
2013-11-21 02:44:00,21.5,13.9,30.61,NNE,21,0.0,0.0,72,0.00,,,0.00,WeatherCatV1.15B25,2013-11-21 07:44:00,
2013-11-21 02:49:00,21.3,13.7,30.61,NNE,21,0.0,0.0,72,0.00,,,0.00,WeatherCatV1.15B25,2013-11-21 07:49:00,
2013-11-21 02:54:00,21.3,13.1,30.61,NNE,21,0.0,0.0,70,0.00,,,0.00,WeatherCatV1.15B25,2013-11-21 07:54:00,
2013-11-21 02:59:00,21.4,13.2,30.61,NNE,21,0.0,0.0,70,0.00,,,0.00,WeatherCatV1.15B25,2013-11-21 07:59:00,
2013-11-21 03:04:00,21.5,13.3,30.61,NNE,21,0.0,0.0,70,0.00,,,0.00,WeatherCatV1.15B25,2013-11-21 08:04:00,
2013-11-21 03:09:00,21.7,12.8,30.61,NNE,21,0.0,0.0,68,0.00,,,0.00,WeatherCatV1.15B25,2013-11-21 08:09:00,
2013-11-21 03:14:00,21.9,14.0,30.61,NNE,21,0.0,0.0,71,0.00,,,0.00,WeatherCatV1.15B25,2013-11-21 08:14:00,
2013-11-21 03:19:00,22.0,13.7,30.61,NNE,21,0.0,0.0,70,0.00,,,0.00,WeatherCatV1.15B25,2013-11-21 08:19:00,
2013-11-21 03:24:00,22.1,12.8,30.61,NNE,21,0.0,0.0,67,0.00,,,0.00,WeatherCatV1.15B25,2013-11-21 08:24:00,
2013-11-21 03:29:00,22.2,13.6,30.61,NNE,21,0.0,0.0,69,0.00,,,0.00,WeatherCatV1.15B25,2013-11-21 08:29:00,
2013-11-21 03:34:00,22.1,13.5,30.61,NNE,21,0.0,0.0,69,0.00,,,0.00,WeatherCatV1.15B25,2013-11-21 08:34:00,
2013-11-21 03:39:00,21.9,13.6,30.61,NNE,21,0.0,0.0,70,0.00,,,0.00,WeatherCatV1.15B25,2013-11-21 08:39:00,
2013-11-21 03:44:00,21.9,13.3,30.61,NNE,21,0.0,0.0,69,0.00,,,0.00,WeatherCatV1.15B25,2013-11-21 08:44:00,
2013-11-21 03:49:00,21.9,13.3,30.61,NNE,21,0.0,0.0,69,0.00,,,0.00,WeatherCatV1.15B25,2013-11-21 08:49:00,
2013-11-21 03:54:00,21.8,13.5,30.61,NNE,21,0.0,0.0,70,0.00,,,0.00,WeatherCatV1.15B25,2013-11-21 08:54:00,
2013-11-21 03:59:00,21.7,13.4,30.61,NNE,21,0.0,0.0,70,0.00,,,0.00,WeatherCatV1.15B25,2013-11-21 08:59:00,
2013-11-21 04:04:00,21.6,13.7,30.61,NNE,21,0.0,0.0,71,0.00,,,0.00,WeatherCatV1.15B25,2013-11-21 09:04:00,
2013-11-21 04:09:00,21.5,13.9,30.61,NNE,21,0.0,0.0,72,0.00,,,0.00,WeatherCatV1.15B25,2013-11-21 09:09:00,
2013-11-21 04:14:00,21.4,13.8,30.61,NNE,21,0.0,0.0,72,0.00,,,0.00,WeatherCatV1.15B25,2013-11-21 09:14:00,
2013-11-21 04:19:00,21.4,14.1,30.61,NNE,21,0.0,0.0,73,0.00,,,0.00,WeatherCatV1.15B25,2013-11-21 09:19:00,
2013-11-21 04:24:00,21.4,14.4,30.61,NNE,21,0.0,0.0,74,0.00,,,0.00,WeatherCatV1.15B25,2013-11-21 09:24:00,
2013-11-21 04:29:00,21.4,14.7,30.61,NNE,21,0.0,0.0,75,0.00,,,0.00,WeatherCatV1.15B25,2013-11-21 09:29:00,
2013-11-21 04:34:00,21.5,14.5,30.61,NNE,21,0.0,0.0,74,0.00,,,0.00,WeatherCatV1.15B25,2013-11-21 09:34:00,
2013-11-21 04:39:00,21.5,14.8,30.61,NNE,21,0.0,0.0,75,0.00,,,0.00,WeatherCatV1.15B25,2013-11-21 09:39:00,
2013-11-21 04:44:00,21.4,15.0,30.61,NNE,21,0.0,0.0,76,0.00,,,0.00,WeatherCatV1.15B25,2013-11-21 09:44:00,
2013-11-21 04:49:00,21.3,14.9,30.61,NNE,21,0.0,0.0,76,0.00,,,0.00,WeatherCatV1.15B25,2013-11-21 09:49:00,
2013-11-21 04:54:00,21.2,15.1,30.61,NNE,21,0.0,0.0,77,0.00,,,0.00,WeatherCatV1.15B25,2013-11-21 09:54:00,
2013-11-21 04:59:00,21.2,14.8,30.61,NNE,21,0.0,0.0,76,0.00,,,0.00,WeatherCatV1.15B25,2013-11-21 09:59:00,
2013-11-21 05:04:00,21.2,15.1,30.61,NNE,21,0.0,0.0,77,0.00,,,0.00,WeatherCatV1.15B25,2013-11-21 10:04:00,
2013-11-21 05:09:00,21.2,15.1,30.61,NNE,21,0.0,0.0,77,0.00,,,0.00,WeatherCatV1.15B25,2013-11-21 10:09:00,
2013-11-21 05:14:00,21.2,15.1,30.61,NNE,21,0.0,0.0,77,0.00,,,0.00,WeatherCatV1.15B25,2013-11-21 10:14:00,
2013-11-21 05:19:00,21.2,15.1,30.61,NNE,21,0.0,0.0,77,0.00,,,0.00,WeatherCatV1.15B25,2013-11-21 10:19:00,
2013-11-21 05:24:00,21.3,15.5,30.61,NNE,21,0.0,0.0,78,0.00,,,0.00,WeatherCatV1.15B25,2013-11-21 10:24:00,
2013-11-21 05:29:00,21.3,15.2,30.61,NNE,21,0.0,0.0,77,0.00,,,0.00,WeatherCatV1.15B25,2013-11-21 10:29:00,
2013-11-21 05:34:00,21.3,15.2,30.61,NNE,21,0.0,0.0,77,0.00,,,0.00,WeatherCatV1.15B25,2013-11-21 10:34:00,
2013-11-21 05:39:00,21.2,15.1,30.61,NNE,21,0.0,0.0,77,0.00,,,0.00,WeatherCatV1.15B25,2013-11-21 10:39:00,
2013-11-21 05:44:00,21.2,14.5,30.61,NNE,21,0.0,0.0,75,0.00,,,0.00,WeatherCatV1.15B25,2013-11-21 10:44:00,
2013-11-21 05:49:00,21.2,14.8,30.61,NNE,21,0.0,0.0,76,0.00,,,0.00,WeatherCatV1.15B25,2013-11-21 10:49:00,
2013-11-21 05:54:00,21.2,15.1,30.62,NNE,21,0.0,0.0,77,0.00,,,0.00,WeatherCatV1.15B25,2013-11-21 10:54:00,
2013-11-21 05:59:00,21.1,15.0,30.62,NNE,21,0.0,0.0,77,0.00,,,0.00,WeatherCatV1.15B25,2013-11-21 10:59:00,
2013-11-21 06:04:00,21.0,15.2,30.61,NNE,21,0.0,0.0,78,0.00,,,0.00,WeatherCatV1.15B25,2013-11-21 11:04:00,
2013-11-21 06:09:00,20.9,15.1,30.61,NNE,21,0.0,0.0,78,0.00,,,0.00,WeatherCatV1.15B25,2013-11-21 11:09:00,
2013-11-21 06:14:00,20.9,15.1,30.61,NNE,21,0.0,0.0,78,0.00,,,0.00,WeatherCatV1.15B25,2013-11-21 11:14:00,
2013-11-21 06:19:00,20.8,15.0,30.61,NNE,21,0.0,0.0,78,0.00,,,0.00,WeatherCatV1.15B25,2013-11-21 11:19:00,
2013-11-21 06:24:00,20.7,14.9,30.61,NNE,21,0.0,0.0,78,0.00,,,0.00,WeatherCatV1.15B25,2013-11-21 11:24:00,
2013-11-21 06:29:00,20.7,14.1,30.61,NNE,21,0.0,0.0,75,0.00,,,0.00,WeatherCatV1.15B25,2013-11-21 11:29:00,
2013-11-21 06:34:00,20.9,14.5,30.61,NNE,21,0.0,0.0,76,0.00,,,0.00,WeatherCatV1.15B25,2013-11-21 11:34:00,
2013-11-21 06:39:00,21.1,14.7,30.62,NNE,21,0.0,0.0,76,0.00,,,0.00,WeatherCatV1.15B25,2013-11-21 11:39:00,
2013-11-21 06:44:00,21.0,14.9,30.61,NNE,21,0.0,0.0,77,0.00,,,0.00,WeatherCatV1.15B25,2013-11-21 11:44:00,
2013-11-21 06:49:00,21.0,14.9,30.61,NNE,21,0.0,0.0,77,0.00,,,0.00,WeatherCatV1.15B25,2013-11-21 11:49:00,
2013-11-21 06:54:00,20.9,14.8,30.62,NNE,21,0.0,0.0,77,0.00,,,0.00,WeatherCatV1.15B25,2013-11-21 11:54:00,
2013-11-21 06:59:00,20.8,14.5,30.62,NNE,22,0.0,0.0,76,0.00,,,0.00,WeatherCatV1.15B25,2013-11-21 11:59:00,
2013-11-21 07:04:00,20.9,14.8,30.62,NNE,21,0.0,0.0,77,0.00,,,0.00,WeatherCatV1.15B25,2013-11-21 12:04:00,
2013-11-21 07:09:00,20.9,14.8,30.62,NNE,21,0.0,0.0,77,0.00,,,0.00,WeatherCatV1.15B25,2013-11-21 12:09:00,
2013-11-21 07:14:00,20.9,14.5,30.62,NNE,21,0.0,0.0,76,0.00,,,0.00,WeatherCatV1.15B25,2013-11-21 12:14:00,
2013-11-21 07:19:00,21.1,15.0,30.62,NNE,21,0.0,0.0,77,0.00,,,0.00,WeatherCatV1.15B25,2013-11-21 12:19:00,
2013-11-21 07:24:00,21.2,15.1,30.61,NNE,21,0.0,0.0,77,0.00,,,0.00,WeatherCatV1.15B25,2013-11-21 12:24:00,
2013-11-21 07:29:00,21.3,14.9,30.61,NNE,21,0.0,0.0,76,0.00,,,0.00,WeatherCatV1.15B25,2013-11-21 12:29:00,
2013-11-21 07:34:00,21.3,14.9,30.61,NNE,21,0.0,0.0,76,0.00,,,0.00,WeatherCatV1.15B25,2013-11-21 12:34:00,
2013-11-21 07:39:00,21.4,15.0,30.61,NNE,21,0.0,0.0,76,0.00,,,0.00,WeatherCatV1.15B25,2013-11-21 12:39:00,
2013-11-21 07:44:00,21.4,15.3,30.61,NNE,21,0.0,0.0,77,0.00,,,0.00,WeatherCatV1.15B25,2013-11-21 12:44:00,
2013-11-21 07:49:00,21.4,15.0,30.60,NNE,21,0.0,0.0,76,0.00,,,0.00,WeatherCatV1.15B25,2013-11-21 12:49:00,
2013-11-21 07:54:00,21.5,13.9,30.61,NNE,21,0.0,0.0,72,0.00,,,0.00,WeatherCatV1.15B25,2013-11-21 12:54:00,
2013-11-21 07:59:00,21.7,13.4,30.60,NNE,21,0.0,0.0,70,0.00,,,0.00,WeatherCatV1.15B25,2013-11-21 12:59:00,
2013-11-21 08:04:00,22.1,12.5,30.60,NNE,21,0.0,0.0,66,0.00,,,0.00,WeatherCatV1.15B25,2013-11-21 13:04:00,
2013-11-21 08:09:00,22.7,12.7,30.60,NNE,21,0.0,0.0,65,0.00,,,0.00,WeatherCatV1.15B25,2013-11-21 13:09:00,
2013-11-21 08:14:00,23.4,13.0,30.60,NNE,21,0.0,0.0,64,0.00,,,0.00,WeatherCatV1.15B25,2013-11-21 13:14:00,
2013-11-21 08:19:00,23.9,13.2,30.60,NNE,21,0.0,0.0,63,0.00,,,0.00,WeatherCatV1.15B25,2013-11-21 13:19:00,
2013-11-21 08:24:00,24.6,13.5,30.60,NNE,21,0.0,0.0,62,0.00,,,0.00,WeatherCatV1.15B25,2013-11-21 13:24:00,
2013-11-21 08:29:00,25.6,14.0,30.59,NNE,21,0.0,0.0,61,0.00,,,0.00,WeatherCatV1.15B25,2013-11-21 13:29:00,
2013-11-21 08:34:00,26.5,13.7,30.59,NNE,21,0.0,0.0,58,0.00,,,0.00,WeatherCatV1.15B25,2013-11-21 13:34:00,
2013-11-21 08:39:00,27.3,14.5,30.59,NNE,21,0.0,0.0,58,0.00,,,0.00,WeatherCatV1.15B25,2013-11-21 13:39:00,
2013-11-21 08:44:00,27.7,16.0,30.59,NNE,21,0.0,0.0,61,0.00,,,0.00,WeatherCatV1.15B25,2013-11-21 13:44:00,
2013-11-21 08:49:00,28.4,17.1,30.59,NNE,21,0.0,0.0,62,0.00,,,0.00,WeatherCatV1.15B25,2013-11-21 13:49:00,
2013-11-21 08:54:00,29.1,17.0,30.59,NNE,21,0.0,0.0,60,0.00,,,0.00,WeatherCatV1.15B25,2013-11-21 13:54:00,
2013-11-21 08:59:00,30.1,17.5,30.58,NNE,21,0.0,0.0,59,0.00,,,0.00,WeatherCatV1.15B25,2013-11-21 13:59:00,
2013-11-21 09:04:00,30.9,17.9,30.58,NNE,21,0.0,0.0,58,0.00,,,0.00,WeatherCatV1.15B25,2013-11-21 14:04:00,
2013-11-21 09:09:00,31.9,17.2,30.58,NNE,21,0.0,1.0,54,0.00,,,0.00,WeatherCatV1.15B25,2013-11-21 14:09:00,
2013-11-21 09:14:00,32.5,15.5,30.58,NNE,21,0.0,0.0,49,0.00,,,0.00,WeatherCatV1.15B25,2013-11-21 14:14:00,
2013-11-21 09:19:00,33.3,13.8,30.58,NNE,22,0.0,0.0,44,0.00,,,0.00,WeatherCatV1.15B25,2013-11-21 14:19:00,
2013-11-21 09:24:00,34.3,14.7,30.57,NNE,21,0.0,1.0,44,0.00,,,0.00,WeatherCatV1.15B25,2013-11-21 14:24:00,
2013-11-21 09:29:00,34.8,15.1,30.57,NNE,21,0.0,0.0,44,0.00,,,0.00,WeatherCatV1.15B25,2013-11-21 14:29:00,
2013-11-21 09:34:00,35.1,13.2,30.57,NNE,21,0.0,1.0,40,0.00,,,0.00,WeatherCatV1.15B25,2013-11-21 14:34:00,
2013-11-21 09:39:00,35.5,14.2,30.57,NNE,21,0.0,0.0,41,0.00,,,0.00,WeatherCatV1.15B25,2013-11-21 14:39:00,
2013-11-21 09:44:00,36.3,14.9,30.57,NNE,22,0.0,0.0,41,0.00,,,0.00,WeatherCatV1.15B25,2013-11-21 14:44:00,
2013-11-21 09:49:00,37.7,15.0,30.56,NNE,21,0.0,0.0,39,0.00,,,0.00,WeatherCatV1.15B25,2013-11-21 14:49:00,
2013-11-21 09:54:00,38.4,14.4,30.56,NNE,21,0.0,2.0,37,0.00,,,0.00,WeatherCatV1.15B25,2013-11-21 14:54:00,
2013-11-21 09:59:00,38.9,14.2,30.56,NNE,22,0.0,1.0,36,0.00,,,0.00,WeatherCatV1.15B25,2013-11-21 14:59:00,
2013-11-21 10:04:00,39.3,12.6,30.55,NNE,21,0.0,1.0,33,0.00,,,0.00,WeatherCatV1.15B25,2013-11-21 15:04:00,
2013-11-21 10:09:00,39.4,11.3,30.55,NNE,21,0.0,1.0,31,0.00,,,0.00,WeatherCatV1.15B25,2013-11-21 15:09:00,
2013-11-21 10:14:00,39.5,11.4,30.54,NNE,22,0.0,0.0,31,0.00,,,0.00,WeatherCatV1.15B25,2013-11-21 15:14:00,
2013-11-21 10:19:00,40.0,11.8,30.54,NNE,22,0.0,1.0,31,0.00,,,0.00,WeatherCatV1.15B25,2013-11-21 15:19:00,
2013-11-21 10:24:00,40.4,11.4,30.54,NNE,21,0.0,1.0,30,0.00,,,0.00,WeatherCatV1.15B25,2013-11-21 15:24:00,
2013-11-21 10:29:00,41.4,12.3,30.53,SE,136,0.0,3.0,30,0.00,,,0.00,WeatherCatV1.15B25,2013-11-21 15:29:00,
2013-11-21 10:34:00,42.3,11.5,30.53,SE,136,0.0,1.0,28,0.00,,,0.00,WeatherCatV1.15B25,2013-11-21 15:34:00,
2013-11-21 10:39:00,43.1,10.6,30.52,SE,135,2.0,2.0,26,0.00,,,0.00,WeatherCatV1.15B25,2013-11-21 15:39:00,
2013-11-21 10:44:00,43.8,12.8,30.52,SE,134,0.0,1.0,28,0.00,,,0.00,WeatherCatV1.15B25,2013-11-21 15:44:00,
2013-11-21 10:49:00,44.1,11.4,30.52,SE,134,0.0,1.0,26,0.00,,,0.00,WeatherCatV1.15B25,2013-11-21 15:49:00,
2013-11-21 10:54:00,44.7,12.8,30.51,SE,140,1.0,1.0,27,0.00,,,0.00,WeatherCatV1.15B25,2013-11-21 15:54:00,
2013-11-21 10:59:00,45.5,13.5,30.51,SE,139,0.0,0.0,27,0.00,,,0.00,WeatherCatV1.15B25,2013-11-21 15:59:00,
2013-11-21 11:04:00,46.0,13.9,30.51,ESE,107,0.0,2.0,27,0.00,,,0.00,WeatherCatV1.15B25,2013-11-21 16:04:00,
2013-11-21 11:09:00,46.5,14.3,30.50,ESE,107,0.0,1.0,27,0.00,,,0.00,WeatherCatV1.15B25,2013-11-21 16:09:00,
2013-11-21 11:14:00,47.1,14.0,30.50,ESE,107,0.0,1.0,26,0.00,,,0.00,WeatherCatV1.15B25,2013-11-21 16:14:00,
2013-11-21 11:19:00,47.7,13.6,30.50,South,190,0.0,3.0,25,0.00,,,0.00,WeatherCatV1.15B25,2013-11-21 16:19:00,
2013-11-21 11:24:00,47.9,13.8,30.50,South,190,0.0,0.0,25,0.00,,,0.00,WeatherCatV1.15B25,2013-11-21 16:24:00,
2013-11-21 11:29:00,48.3,15.9,30.49,South,190,0.0,1.0,27,0.00,,,0.00,WeatherCatV1.15B25,2013-11-21 16:29:00,
2013-11-21 11:34:00,48.6,15.3,30.49,South,190,0.0,1.0,26,0.00,,,0.00,WeatherCatV1.15B25,2013-11-21 16:34:00,
2013-11-21 11:39:00,49.2,14.9,30.49,South,172,0.0,1.0,25,0.00,,,0.00,WeatherCatV1.15B25,2013-11-21 16:39:00,
2013-11-21 11:44:00,49.7,15.3,30.48,SSE,152,0.0,2.0,25,0.00,,,0.00,WeatherCatV1.15B25,2013-11-21 16:44:00,
2013-11-21 11:49:00,49.7,13.4,30.48,SSE,155,0.0,3.0,23,0.00,,,0.00,WeatherCatV1.15B25,2013-11-21 16:49:00,
2013-11-21 11:54:00,49.5,14.2,30.48,SSE,155,0.0,1.0,24,0.00,,,0.00,WeatherCatV1.15B25,2013-11-21 16:54:00,
2013-11-21 11:59:00,49.4,12.2,30.48,East,83,0.0,3.0,22,0.00,,,0.00,WeatherCatV1.15B25,2013-11-21 16:59:00,
2013-11-21 12:04:00,48.7,13.5,30.48,ESE,112,0.0,2.0,24,0.00,,,0.00,WeatherCatV1.15B25,2013-11-21 17:04:00,
2013-11-21 12:09:00,48.6,12.5,30.48,ESE,111,1.0,2.0,23,0.00,,,0.00,WeatherCatV1.15B25,2013-11-21 17:09:00,
2013-11-21 12:14:00,48.5,12.4,30.47,SSW,200,1.0,1.0,23,0.00,,,0.00,WeatherCatV1.15B25,2013-11-21 17:14:00,
2013-11-21 12:19:00,47.7,9.7,30.48,SW,233,1.0,3.0,21,0.00,,,0.00,WeatherCatV1.15B25,2013-11-21 17:19:00,
2013-11-21 12:24:00,46.6,10.8,30.47,East,91,0.0,1.0,23,0.00,,,0.00,WeatherCatV1.15B25,2013-11-21 17:24:00,
2013-11-21 12:29:00,45.9,9.2,30.48,East,94,0.0,3.0,22,0.00,,,0.00,WeatherCatV1.15B25,2013-11-21 17:29:00,
2013-11-21 12:34:00,45.6,10.9,30.47,East,91,1.0,2.0,24,0.00,,,0.00,WeatherCatV1.15B25,2013-11-21 17:34:00,
2013-11-21 12:39:00,45.1,11.4,30.48,East,92,0.0,2.0,25,0.00,,,0.00,WeatherCatV1.15B25,2013-11-21 17:39:00,
2013-11-21 12:44:00,45.0,9.5,30.47,SE,128,1.0,4.0,23,0.00,,,0.00,WeatherCatV1.15B25,2013-11-21 17:44:00,
2013-11-21 12:49:00,45.3,9.7,30.47,SE,128,0.0,1.0,23,0.00,,,0.00,WeatherCatV1.15B25,2013-11-21 17:49:00,
2013-11-21 12:54:00,45.3,10.7,30.47,SSW,207,2.0,2.0,24,0.00,,,0.00,WeatherCatV1.15B25,2013-11-21 17:54:00,
2013-11-21 12:59:00,44.9,11.2,30.47,South,189,0.0,2.0,25,0.00,,,0.00,WeatherCatV1.15B25,2013-11-21 17:59:00,
2013-11-21 13:04:00,44.7,12.8,30.47,ESE,122,0.0,1.0,27,0.00,,,0.00,WeatherCatV1.15B25,2013-11-21 18:04:00,
2013-11-21 13:09:00,44.8,12.9,30.47,SSE,154,1.0,1.0,27,0.00,,,0.00,WeatherCatV1.15B25,2013-11-21 18:09:00,
2013-11-21 13:14:00,45.2,14.9,30.47,SSE,153,0.0,5.0,29,0.00,,,0.00,WeatherCatV1.15B25,2013-11-21 18:14:00,
2013-11-21 13:19:00,45.2,15.6,30.46,SSW,197,3.0,3.0,30,0.00,,,0.00,WeatherCatV1.15B25,2013-11-21 18:19:00,
2013-11-21 13:24:00,45.4,16.6,30.46,SSW,211,1.0,3.0,31,0.00,,,0.00,WeatherCatV1.15B25,2013-11-21 18:24:00,
2013-11-21 13:29:00,45.8,16.9,30.45,South,169,1.0,4.0,31,0.00,,,0.00,WeatherCatV1.15B25,2013-11-21 18:29:00,
2013-11-21 13:34:00,46.1,17.2,30.45,SW,226,0.0,3.0,31,0.00,,,0.00,WeatherCatV1.15B25,2013-11-21 18:34:00,
2013-11-21 13:39:00,46.3,17.3,30.44,SW,225,0.0,3.0,31,0.00,,,0.00,WeatherCatV1.15B25,2013-11-21 18:39:00,
2013-11-21 13:44:00,46.1,17.9,30.44,WNW,294,0.0,1.0,32,0.00,,,0.00,WeatherCatV1.15B25,2013-11-21 18:44:00,
2013-11-21 13:49:00,45.5,16.6,30.44,WNW,291,0.0,2.0,31,0.00,,,0.00,WeatherCatV1.15B25,2013-11-21 18:49:00,
2013-11-21 13:54:00,44.6,16.6,30.45,West,273,0.0,1.0,32,0.00,,,0.00,WeatherCatV1.15B25,2013-11-21 18:54:00,
2013-11-21 13:59:00,43.8,15.9,30.45,West,274,0.0,0.0,32,0.00,,,0.00,WeatherCatV1.15B25,2013-11-21 18:59:00,
2013-11-21 14:04:00,43.5,16.3,30.45,West,273,0.0,0.0,33,0.00,,,0.00,WeatherCatV1.15B25,2013-11-21 19:04:00,
2013-11-21 14:09:00,43.2,16.1,30.44,WNW,302,0.0,0.0,33,0.00,,,0.00,WeatherCatV1.15B25,2013-11-21 19:09:00,
2013-11-21 14:14:00,43.2,15.4,30.44,West,266,0.0,2.0,32,0.00,,,0.00,WeatherCatV1.15B25,2013-11-21 19:14:00,
2013-11-21 14:19:00,43.6,16.4,30.44,SW,230,1.0,3.0,33,0.00,,,0.00,WeatherCatV1.15B25,2013-11-21 19:19:00,
2013-11-21 14:24:00,43.8,14.4,30.44,SW,230,0.0,2.0,30,0.00,,,0.00,WeatherCatV1.15B25,2013-11-21 19:24:00,
2013-11-21 14:29:00,43.6,13.5,30.43,SW,230,0.0,0.0,29,0.00,,,0.00,WeatherCatV1.15B25,2013-11-21 19:29:00,
2013-11-21 14:34:00,43.2,13.9,30.44,East,99,1.0,2.0,30,0.00,,,0.00,WeatherCatV1.15B25,2013-11-21 19:34:00,
2013-11-21 14:39:00,42.8,14.3,30.44,SE,126,0.0,0.0,31,0.00,,,0.00,WeatherCatV1.15B25,2013-11-21 19:39:00,
2013-11-21 14:44:00,42.5,13.3,30.44,SE,125,0.0,0.0,30,0.00,,,0.00,WeatherCatV1.15B25,2013-11-21 19:44:00,
2013-11-21 14:49:00,42.3,13.1,30.44,SE,125,1.0,1.0,30,0.00,,,0.00,WeatherCatV1.15B25,2013-11-21 19:49:00,
2013-11-21 14:54:00,42.1,12.9,30.44,SE,125,0.0,0.0,30,0.00,,,0.00,WeatherCatV1.15B25,2013-11-21 19:54:00,
2013-11-21 14:59:00,41.9,12.0,30.44,SE,125,0.0,0.0,29,0.00,,,0.00,WeatherCatV1.15B25,2013-11-21 19:59:00,
2013-11-21 15:05:00,41.5,12.4,30.44,SE,125,0.0,0.0,30,0.00,,,0.00,WeatherCatV1.15B25,2013-11-21 20:05:00,
2013-11-21 15:10:00,41.3,12.2,30.44,SE,125,0.0,1.0,30,0.00,,,0.00,WeatherCatV1.15B25,2013-11-21 20:10:00,
2013-11-21 15:15:00,41.1,13.5,30.44,SE,125,0.0,0.0,32,0.00,,,0.00,WeatherCatV1.15B25,2013-11-21 20:15:00,
2013-11-21 15:20:00,40.9,11.1,30.44,SE,125,0.0,0.0,29,0.00,,,0.00,WeatherCatV1.15B25,2013-11-21 20:20:00,
2013-11-21 15:25:00,40.7,12.4,30.44,SE,125,0.0,0.0,31,0.00,,,0.00,WeatherCatV1.15B25,2013-11-21 20:25:00,
2013-11-21 15:30:00,40.5,11.5,30.44,SE,125,0.0,0.0,30,0.00,,,0.00,WeatherCatV1.15B25,2013-11-21 20:30:00,
2013-11-21 15:35:00,40.4,12.2,30.44,SE,125,0.0,0.0,31,0.00,,,0.00,WeatherCatV1.15B25,2013-11-21 20:35:00,
2013-11-21 15:40:00,40.3,13.5,30.44,SE,125,0.0,0.0,33,0.00,,,0.00,WeatherCatV1.15B25,2013-11-21 20:40:00,
2013-11-21 15:45:00,40.2,14.8,30.44,SE,125,0.0,0.0,35,0.00,,,0.00,WeatherCatV1.15B25,2013-11-21 20:45:00,
2013-11-21 15:50:00,40.1,16.6,30.44,SE,125,0.0,0.0,38,0.00,,,0.00,WeatherCatV1.15B25,2013-11-21 20:50:00,
2013-11-21 15:55:00,39.7,17.4,30.43,SE,125,0.0,0.0,40,0.00,,,0.00,WeatherCatV1.15B25,2013-11-21 20:55:00,
2013-11-21 16:00:00,39.3,18.7,30.44,SE,125,0.0,0.0,43,0.00,,,0.00,WeatherCatV1.15B25,2013-11-21 21:00:00,
2013-11-21 16:05:00,38.9,18.9,30.44,SE,125,0.0,0.0,44,0.00,,,0.00,WeatherCatV1.15B25,2013-11-21 21:05:00,
2013-11-21 16:10:00,38.2,16.6,30.44,SE,125,0.0,0.0,41,0.00,,,0.00,WeatherCatV1.15B25,2013-11-21 21:10:00,
2013-11-21 16:15:00,37.5,17.6,30.44,SE,125,0.0,0.0,44,0.00,,,0.00,WeatherCatV1.15B25,2013-11-21 21:15:00,
2013-11-21 16:20:00,36.9,17.0,30.44,SE,125,0.0,0.0,44,0.00,,,0.00,WeatherCatV1.15B25,2013-11-21 21:20:00,
2013-11-21 16:25:00,36.2,18.4,30.44,SE,125,0.0,1.0,48,0.00,,,0.00,WeatherCatV1.15B25,2013-11-21 21:25:00,
2013-11-21 16:30:00,35.6,19.3,30.44,SE,125,0.0,0.0,51,0.00,,,0.00,WeatherCatV1.15B25,2013-11-21 21:30:00,
2013-11-21 16:35:00,35.1,17.9,30.44,SE,125,0.0,0.0,49,0.00,,,0.00,WeatherCatV1.15B25,2013-11-21 21:35:00,
2013-11-21 16:40:00,34.6,18.8,30.44,SE,125,0.0,0.0,52,0.00,,,0.00,WeatherCatV1.15B25,2013-11-21 21:40:00,
2013-11-21 16:45:00,34.4,19.1,30.44,SE,125,0.0,0.0,53,0.00,,,0.00,WeatherCatV1.15B25,2013-11-21 21:45:00,
2013-11-21 16:50:00,34.1,18.3,30.44,SE,125,0.0,0.0,52,0.00,,,0.00,WeatherCatV1.15B25,2013-11-21 21:50:00,
2013-11-21 16:55:00,33.8,18.1,30.44,SE,125,0.0,0.0,52,0.00,,,0.00,WeatherCatV1.15B25,2013-11-21 21:55:00,
2013-11-21 17:00:00,33.5,17.3,30.44,SE,125,0.0,0.0,51,0.00,,,0.00,WeatherCatV1.15B25,2013-11-21 22:00:00,
2013-11-21 17:05:00,33.2,18.8,30.44,SE,125,0.0,0.0,55,0.00,,,0.00,WeatherCatV1.15B25,2013-11-21 22:05:00,
2013-11-21 17:10:00,32.8,19.7,30.44,SE,125,0.0,0.0,58,0.00,,,0.00,WeatherCatV1.15B25,2013-11-21 22:10:00,
2013-11-21 17:15:00,32.5,17.7,30.44,SE,125,0.0,0.0,54,0.00,,,0.00,WeatherCatV1.15B25,2013-11-21 22:15:00,
2013-11-21 17:20:00,32.5,19.4,30.43,SE,125,0.0,0.0,58,0.00,,,0.00,WeatherCatV1.15B25,2013-11-21 22:20:00,
2013-11-21 17:25:00,32.3,18.8,30.44,SE,125,0.0,0.0,57,0.00,,,0.00,WeatherCatV1.15B25,2013-11-21 22:25:00,
2013-11-21 17:30:00,32.1,19.0,30.44,SE,125,0.0,1.0,58,0.00,,,0.00,WeatherCatV1.15B25,2013-11-21 22:30:00,
2013-11-21 17:35:00,32.1,19.0,30.44,SE,125,0.0,0.0,58,0.00,,,0.00,WeatherCatV1.15B25,2013-11-21 22:35:00,
2013-11-21 17:40:00,32.2,20.3,30.44,SE,125,0.0,0.0,61,0.00,,,0.00,WeatherCatV1.15B25,2013-11-21 22:40:00,
2013-11-21 17:45:00,32.0,20.5,30.44,SE,125,0.0,0.0,62,0.00,,,0.00,WeatherCatV1.15B25,2013-11-21 22:45:00,
2013-11-21 17:50:00,31.7,20.2,30.44,SE,125,0.0,0.0,62,0.00,,,0.00,WeatherCatV1.15B25,2013-11-21 22:50:00,
2013-11-21 17:55:00,31.5,20.7,30.44,SE,125,0.0,0.0,64,0.00,,,0.00,WeatherCatV1.15B25,2013-11-21 22:55:00,
2013-11-21 18:00:00,31.3,20.2,30.44,SE,125,0.0,0.0,63,0.00,,,0.00,WeatherCatV1.15B25,2013-11-21 23:00:00,
2013-11-21 18:05:00,31.2,19.3,30.43,SE,125,0.0,0.0,61,0.00,,,0.00,WeatherCatV1.15B25,2013-11-21 23:05:00,
2013-11-21 18:10:00,31.1,18.5,30.43,SE,125,0.0,0.0,59,0.00,,,0.00,WeatherCatV1.15B25,2013-11-21 23:10:00,
2013-11-21 18:15:00,31.1,20.0,30.43,SE,125,0.0,0.0,63,0.00,,,0.00,WeatherCatV1.15B25,2013-11-21 23:15:00,
2013-11-21 18:20:00,31.2,19.7,30.43,SE,125,0.0,0.0,62,0.00,,,0.00,WeatherCatV1.15B25,2013-11-21 23:20:00,
2013-11-21 18:25:00,31.1,20.0,30.43,SE,125,0.0,0.0,63,0.00,,,0.00,WeatherCatV1.15B25,2013-11-21 23:25:00,
2013-11-21 18:30:00,31.0,19.9,30.42,SE,125,0.0,0.0,63,0.00,,,0.00,WeatherCatV1.15B25,2013-11-21 23:30:00,
2013-11-21 18:35:00,30.9,20.2,30.42,SE,125,0.0,0.0,64,0.00,,,0.00,WeatherCatV1.15B25,2013-11-21 23:35:00,
2013-11-21 18:40:00,30.8,20.1,30.42,SE,125,0.0,0.0,64,0.00,,,0.00,WeatherCatV1.15B25,2013-11-21 23:40:00,
2013-11-21 18:45:00,30.8,20.1,30.42,SE,125,0.0,0.0,64,0.00,,,0.00,WeatherCatV1.15B25,2013-11-21 23:45:00,
2013-11-21 18:50:00,30.7,20.0,30.42,SE,125,0.0,0.0,64,0.00,,,0.00,WeatherCatV1.15B25,2013-11-21 23:50:00,
2013-11-21 18:55:00,30.6,19.9,30.42,SE,125,0.0,0.0,64,0.00,,,0.00,WeatherCatV1.15B25,2013-11-21 23:55:00,
2013-11-21 19:00:00,30.6,20.3,30.42,SE,125,0.0,0.0,65,0.00,,,0.00,WeatherCatV1.15B25,2013-11-22 00:00:00,
2013-11-21 19:05:00,30.5,20.9,30.42,SE,125,0.0,0.0,67,0.00,,,0.00,WeatherCatV1.15B25,2013-11-22 00:05:00,
2013-11-21 19:10:00,30.3,20.7,30.42,SE,125,0.0,0.0,67,0.00,,,0.00,WeatherCatV1.15B25,2013-11-22 00:10:00,
2013-11-21 19:15:00,30.3,20.7,30.42,SE,125,0.0,0.0,67,0.00,,,0.00,WeatherCatV1.15B25,2013-11-22 00:15:00,
2013-11-21 19:20:00,30.2,20.2,30.42,SE,125,0.0,0.0,66,0.00,,,0.00,WeatherCatV1.15B25,2013-11-22 00:20:00,
2013-11-21 19:25:00,30.2,20.9,30.42,SE,125,0.0,0.0,68,0.00,,,0.00,WeatherCatV1.15B25,2013-11-22 00:25:00,
2013-11-21 19:30:00,30.1,20.1,30.42,SE,125,0.0,0.0,66,0.00,,,0.00,WeatherCatV1.15B25,2013-11-22 00:30:00,
2013-11-21 19:35:00,30.1,20.5,30.42,SE,125,0.0,0.0,67,0.00,,,0.00,WeatherCatV1.15B25,2013-11-22 00:35:00,
2013-11-21 19:40:00,30.1,20.1,30.42,SE,125,0.0,0.0,66,0.00,,,0.00,WeatherCatV1.15B25,2013-11-22 00:40:00,
2013-11-21 19:45:00,30.2,18.8,30.42,SE,125,0.0,0.0,62,0.00,,,0.00,WeatherCatV1.15B25,2013-11-22 00:45:00,
2013-11-21 19:50:00,30.4,20.1,30.41,SE,125,0.0,0.0,65,0.00,,,0.00,WeatherCatV1.15B25,2013-11-22 00:50:00,
2013-11-21 19:55:00,30.4,20.8,30.41,SE,125,0.0,0.0,67,0.00,,,0.00,WeatherCatV1.15B25,2013-11-22 00:55:00,
2013-11-21 20:00:00,30.3,20.7,30.40,SE,125,0.0,0.0,67,0.00,,,0.00,WeatherCatV1.15B25,2013-11-22 01:00:00,
2013-11-21 20:05:00,30.1,20.8,30.40,SE,125,0.0,0.0,68,0.00,,,0.00,WeatherCatV1.15B25,2013-11-22 01:05:00,
2013-11-21 20:10:00,30.1,19.8,30.39,SE,125,0.0,0.0,65,0.00,,,0.00,WeatherCatV1.15B25,2013-11-22 01:10:00,
2013-11-21 20:15:00,30.3,18.9,30.39,SE,125,0.0,0.0,62,0.00,,,0.00,WeatherCatV1.15B25,2013-11-22 01:15:00,
2013-11-21 20:20:00,30.5,20.5,30.39,SE,125,0.0,0.0,66,0.00,,,0.00,WeatherCatV1.15B25,2013-11-22 01:20:00,
2013-11-21 20:25:00,30.4,20.4,30.39,SE,125,0.0,0.0,66,0.00,,,0.00,WeatherCatV1.15B25,2013-11-22 01:25:00,
2013-11-21 20:30:00,30.1,19.4,30.39,SE,125,0.0,0.0,64,0.00,,,0.00,WeatherCatV1.15B25,2013-11-22 01:30:00,
2013-11-21 20:35:00,29.8,20.2,30.39,SSE,168,0.0,0.0,67,0.00,,,0.00,WeatherCatV1.15B25,2013-11-22 01:35:00,
2013-11-21 20:40:00,29.5,20.3,30.39,SSE,168,0.0,0.0,68,0.00,,,0.00,WeatherCatV1.15B25,2013-11-22 01:40:00,
2013-11-21 20:45:00,29.2,18.9,30.39,SSE,168,0.0,0.0,65,0.00,,,0.00,WeatherCatV1.15B25,2013-11-22 01:45:00,
2013-11-21 20:50:00,29.0,19.1,30.39,SSE,168,1.0,1.0,66,0.00,,,0.00,WeatherCatV1.15B25,2013-11-22 01:50:00,
2013-11-21 20:55:00,28.9,19.0,30.39,SSE,168,0.0,0.0,66,0.00,,,0.00,WeatherCatV1.15B25,2013-11-22 01:55:00,
2013-11-21 21:00:00,28.9,20.0,30.37,SSE,168,0.0,0.0,69,0.00,,,0.00,WeatherCatV1.15B25,2013-11-22 02:00:00,
2013-11-21 21:05:00,28.9,19.7,30.37,SW,219,0.0,0.0,68,0.00,,,0.00,WeatherCatV1.15B25,2013-11-22 02:05:00,
2013-11-21 21:08:00,29.0,20.1,30.36,SW,219,0.0,1.0,69,0.00,,,0.00,WeatherCatV1.15B25,2013-11-22 02:08:00,
2013-11-21 21:09:00,29.0,19.8,30.36,SW,219,0.0,0.0,68,0.00,,,0.00,WeatherCatV1.15B25,2013-11-22 02:09:00,
2013-11-21 21:10:00,29.0,19.4,30.36,SW,219,0.0,0.0,67,0.00,,,0.00,WeatherCatV1.15B25,2013-11-22 02:10:00,
2013-11-21 21:11:00,29.0,19.4,30.36,SW,219,0.0,0.0,67,0.00,,,0.00,WeatherCatV1.15B25,2013-11-22 02:11:00,
2013-11-21 21:13:00,29.1,20.2,30.36,SW,218,0.0,0.0,69,0.00,,,0.00,WeatherCatV1.15B25,2013-11-22 02:13:00,
2013-11-21 21:16:00,29.1,20.6,30.36,SW,218,0.0,0.0,70,0.00,,,0.00,WeatherCatV1.15B25,2013-11-22 02:16:00,
2013-11-21 21:21:00,29.1,19.9,30.36,SW,218,0.0,0.0,68,0.00,,,0.00,WeatherCatV1.15B25,2013-11-22 02:21:00,
2013-11-21 21:26:00,29.1,20.2,30.36,SW,218,0.0,0.0,69,0.00,,,0.00,WeatherCatV1.15B25,2013-11-22 02:26:00,
2013-11-21 21:31:00,29.2,20.7,30.36,SW,219,0.0,0.0,70,0.00,,,0.00,WeatherCatV1.15B25,2013-11-22 02:31:00,
2013-11-21 21:36:00,29.1,20.6,30.36,SW,219,0.0,0.0,70,0.00,,,0.00,WeatherCatV1.15B25,2013-11-22 02:36:00,
2013-11-21 21:41:00,29.2,19.3,30.35,SW,218,0.0,0.0,66,0.00,,,0.00,WeatherCatV1.15B25,2013-11-22 02:41:00,
2013-11-21 21:46:00,29.4,20.8,30.35,SW,219,0.0,0.0,70,0.00,,,0.00,WeatherCatV1.15B25,2013-11-22 02:46:00,
2013-11-21 21:51:00,29.5,20.9,30.36,West,274,0.0,2.0,70,0.00,,,0.00,WeatherCatV1.15B25,2013-11-22 02:51:00,
2013-11-21 21:56:00,29.7,20.8,30.35,West,275,0.0,0.0,69,0.00,,,0.00,WeatherCatV1.15B25,2013-11-22 02:56:00,
2013-11-21 22:01:00,29.9,20.3,30.34,West,275,1.0,1.0,67,0.00,,,0.00,WeatherCatV1.15B25,2013-11-22 03:01:00,
2013-11-21 22:06:00,29.9,20.3,30.34,West,274,0.0,1.0,67,0.00,,,0.00,WeatherCatV1.15B25,2013-11-22 03:06:00,
2013-11-21 22:11:00,29.8,19.5,30.34,West,274,0.0,0.0,65,0.00,,,0.00,WeatherCatV1.15B25,2013-11-22 03:11:00,
2013-11-21 22:16:00,29.9,19.9,30.34,West,273,0.0,0.0,66,0.00,,,0.00,WeatherCatV1.15B25,2013-11-22 03:16:00,
2013-11-21 22:21:00,29.7,19.4,30.34,West,273,0.0,0.0,65,0.00,,,0.00,WeatherCatV1.15B25,2013-11-22 03:21:00,
2013-11-21 22:26:00,29.6,19.7,30.34,West,274,0.0,0.0,66,0.00,,,0.00,WeatherCatV1.15B25,2013-11-22 03:26:00,
2013-11-21 22:31:00,29.4,19.8,30.33,West,273,0.0,0.0,67,0.00,,,0.00,WeatherCatV1.15B25,2013-11-22 03:31:00,
2013-11-21 22:36:00,29.2,19.3,30.34,West,274,0.0,0.0,66,0.00,,,0.00,WeatherCatV1.15B25,2013-11-22 03:36:00,
2013-11-21 22:41:00,29.0,19.4,30.33,West,274,0.0,0.0,67,0.00,,,0.00,WeatherCatV1.15B25,2013-11-22 03:41:00,
2013-11-21 22:46:00,28.9,18.6,30.33,West,274,0.0,0.0,65,0.00,,,0.00,WeatherCatV1.15B25,2013-11-22 03:46:00,
2013-11-21 22:51:00,28.8,19.6,30.33,West,274,0.0,0.0,68,0.00,,,0.00,WeatherCatV1.15B25,2013-11-22 03:51:00,
2013-11-21 22:56:00,28.6,19.4,30.33,West,273,0.0,0.0,68,0.00,,,0.00,WeatherCatV1.15B25,2013-11-22 03:56:00,
2013-11-21 23:01:00,28.6,18.7,30.32,West,274,0.0,0.0,66,0.00,,,0.00,WeatherCatV1.15B25,2013-11-22 04:01:00,
2013-11-21 23:06:00,28.6,19.7,30.32,West,274,0.0,0.0,69,0.00,,,0.00,WeatherCatV1.15B25,2013-11-22 04:06:00,
2013-11-21 23:11:00,28.6,20.1,30.32,West,274,0.0,0.0,70,0.00,,,0.00,WeatherCatV1.15B25,2013-11-22 04:11:00,
2013-11-21 23:16:00,28.6,19.7,30.32,West,273,0.0,0.0,69,0.00,,,0.00,WeatherCatV1.15B25,2013-11-22 04:16:00,
2013-11-21 23:21:00,28.8,19.9,30.31,West,274,0.0,0.0,69,0.00,,,0.00,WeatherCatV1.15B25,2013-11-22 04:21:00,
2013-11-21 23:26:00,28.7,20.2,30.31,West,273,0.0,0.0,70,0.00,,,0.00,WeatherCatV1.15B25,2013-11-22 04:26:00,
2013-11-21 23:31:00,28.7,20.2,30.31,West,273,0.0,0.0,70,0.00,,,0.00,WeatherCatV1.15B25,2013-11-22 04:31:00,
2013-11-21 23:36:00,28.7,19.2,30.30,West,274,0.0,0.0,67,0.00,,,0.00,WeatherCatV1.15B25,2013-11-22 04:36:00,
2013-11-21 23:41:00,28.8,19.9,30.30,West,274,0.0,0.0,69,0.00,,,0.00,WeatherCatV1.15B25,2013-11-22 04:41:00,
2013-11-21 23:46:00,28.8,20.6,30.29,West,274,0.0,0.0,71,0.00,,,0.00,WeatherCatV1.15B25,2013-11-22 04:46:00,
2013-11-21 23:51:00,28.8,21.3,30.29,West,274,0.0,0.0,73,0.00,,,0.00,WeatherCatV1.15B25,2013-11-22 04:51:00,
2013-11-21 23:56:00,28.8,21.3,30.29,West,274,0.0,0.0,73,0.00,,,0.00,WeatherCatV1.15B25,2013-11-22 04:56:00,